Theta_e
325 327 328 327 327 327 327 327 326 325 323 322 322 322 322 321 321 321 322 321 321 319 318 318 317 317 317 317 317 317 314 313 306 303 297 292 293 297
316 317 320 323 325 326 326 326 326 326 324 323 323 323 323 322 321 321 322 322 321 320 319 318 317 317 317 317 317 316 313 310 304 299 293 292 294 297
314 315 315 316 318 320 321 322 325 325 325 324 323 323 323 323 321 320 321 321 321 320 319 319 318 317 317 317 316 315 312 306 301 294 291 291 293 296
313 314 314 314 314 314 316 318 323 323 323 323 323 323 323 323 322 322 320 320 321 320 318 317 318 316 314 314 314 313 310 303 295 292 291 290 289 292
310 311 312 313 313 313 313 313 314 317 321 323 323 323 322 321 321 321 320 320 320 320 320 316 317 315 314 311 310 311 305 298 293 291 291 290 289 289
308 309 309 310 310 311 312 313 314 315 318 319 321 322 322 322 321 320 321 320 319 320 317 316 315 316 313 309 306 305 300 294 291 290 290 289 288 288
306 305 304 305 306 308 311 313 314 314 316 318 318 319 319 320 318 318 320 320 320 320 316 316 314 314 311 305 304 306 294 292 291 290 290 288 288 290
299 297 299 302 305 307 308 310 312 313 313 315 315 317 317 319 318 319 318 313 315 317 313 314 314 309 308 303 304 293 292 292 290 290 289 287 288 291
294 295 296 299 297 299 303 305 308 309 312 312 313 315 316 317 319 317 315 316 312 318 312 308 311 309 303 301 300 292 292 290 290 289 288 287 288 290
291 292 292 292 294 295 300 302 304 306 307 309 312 312 313 317 318 318 317 313 314 315 307 308 308 304 301 299 295 291 290 289 289 288 288 286 287 287
294 294 291 290 291 293 297 300 302 304 306 308 310 311 311 315 316 317 315 313 310 310 305 306 303 302 299 300 292 290 289 289 288 289 287 286 286 287
295 293 291 289 290 293 297 299 300 303 305 306 308 311 311 312 314 316 317 314 306 305 306 301 300 296 294 295 292 289 288 287 287 287 286 287 288 287
293 292 289 289 290 297 298 300 302 302 304 304 307 309 311 311 311 314 314 312 308 306 305 302 299 300 295 289 288 287 287 287 286 286 286 285 285 285
291 291 289 289 292 296 298 300 301 302 303 305 306 309 310 309 307 309 307 306 303 304 304 301 302 298 294 288 287 287 286 286 285 285 284 284 285 285
290 289 291 292 295 296 296 297 298 301 302 304 305 305 304 303 303 301 300 300 300 299 298 299 297 291 288 288 287 286 285 285 285 284 284 286 286 285
289 290 291 292 293 294 294 295 296 298 299 300 300 300 300 299 298 298 298 298 299 295 295 292 287 287 287 286 286 285 285 285 285 285 285 285 285 285
289 290 290 290 291 293 292 294 295 296 296 297 298 298 298 297 296 296 296 297 296 294 293 286 286 286 286 286 286 285 285 286 286 285 285 286 286 286
288 288 288 288 289 291 291 292 293 294 294 295 295 296 296 295 294 295 297 294 294 291 286 286 286 285 285 285 285 287 286 286 286 285 285 285 288 289
286 286 286 287 289 289 290 291 292 293 293 293 293 293 294 293 294 295 293 292 290 286 286 285 285 285 284 285 286 286 286 285 286 286 287 287 287 289
284 284 286 287 288 288 289 290 291 291 291 291 291 291 291 292 293 293 292 293 286 285 285 285 284 284 284 283 284 286 286 287 286 287 288 288 289 289
283 284 285 286 287 288 288 289 290 290 289 290 290 289 289 291 292 293 292 286 285 285 285 283 283 283 284 284 286 289 289 288 288 289 289 287 287 289
283 283 285 285 286 288 288 289 289 289 288 288 288 288 290 291 292 291 286 286 285 284 284 283 283 284 285 287 288 288 290 289 288 288 288 287 285 286
282 283 284 285 287 287 287 289 289 288 288 288 288 289 291 292 290 286 285 285 284 283 283 284 284 286 287 288 288 289 288 288 290 291 290 289 289 289
Wind_Speed
38 40 43 45 47 49 50 47 44 39 41 41 42 43 47 44 43 43 43 39 41 42 42 40 39 41 41 39 37 35 34 34 32 31 31 28 26 19
33 35 36 39 42 44 45 47 50 48 46 43 51 49 46 44 42 43 46 43 44 41 43 42 42 44 43 40 39 36 35 33 31 30 28 26 22 16
31 31 31 31 35 39 42 45 47 48 49 57 51 50 42 46 45 41 44 46 48 39 40 45 46 47 45 43 42 36 34 30 29 28 26 26 20 17
27 28 31 35 36 37 38 41 43 47 48 50 51 48 49 49 49 46 43 44 47 44 41 44 49 48 45 45 39 35 31 28 28 26 26 24 23 19
35 35 35 35 37 39 38 39 39 43 45 48 53 50 50 50 49 48 46 44 47 47 52 37 46 50 44 42 37 33 27 26 27 25 24 23 23 21
35 35 36 35 35 37 37 38 39 40 42 43 47 49 50 49 49 48 48 51 41 46 48 43 41 48 48 40 33 26 25 25 26 24 23 23 21 18
39 43 42 39 37 34 32 34 35 37 39 39 41 43 43 33 41 44 51 51 47 48 45 53 47 49 43 37 29 28 25 24 25 25 23 21 19 16
42 42 40 40 37 32 33 34 35 37 39 40 40 40 45 49 33 42 51 45 44 49 48 52 44 45 41 34 26 24 25 25 25 23 21 20 18 17
40 39 37 35 41 39 40 36 36 38 39 40 41 42 44 44 43 45 43 50 46 43 39 48 43 42 38 27 20 24 27 24 23 21 18 17 16 18
37 37 38 42 39 38 37 40 43 42 42 37 38 42 43 42 39 43 43 45 45 39 35 35 39 39 30 25 22 27 24 22 22 19 17 17 17 19
34 37 41 41 39 41 39 41 45 48 45 42 40 41 41 40 36 36 36 40 38 37 36 32 30 29 26 22 24 23 22 22 19 19 19 18 18 18
36 44 43 41 42 42 42 45 50 50 45 44 42 43 43 42 33 41 41 42 40 32 35 34 26 22 13 21 24 23 21 18 18 18 18 17 17 18
43 47 48 45 43 40 41 42 43 43 41 40 41 40 45 40 41 44 36 42 42 32 29 36 23 21 14 9 17 18 17 17 18 18 18 18 20 19
43 47 49 45 43 44 42 39 40 40 37 37 38 39 38 37 34 32 28 30 27 24 19 27 17 18 20 17 11 17 17 16 16 16 18 18 18 17
42 44 44 43 39 43 38 37 34 33 30 32 35 34 33 29 25 22 19 20 21 16 16 16 12 14 15 14 10 11 12 13 14 16 17 15 15 17
47 45 40 34 36 40 41 37 34 33 32 29 26 24 22 19 20 21 22 20 18 16 14 13 12 10 11 11 11 9 10 8 7 10 14 17 18 17
41 38 34 34 39 41 43 39 36 31 30 27 22 19 17 20 23 21 18 17 16 16 13 12 9 9 9 9 8 6 6 9 10 12 16 17 17 18
34 31 33 36 40 41 45 43 36 29 28 24 20 16 18 22 22 18 16 15 11 11 10 10 8 6 5 4 4 4 8 8 9 13 16 21 22 16
30 32 36 38 41 42 43 40 35 27 25 21 18 15 18 20 20 21 19 14 12 11 9 7 5 3 2 4 6 6 8 10 14 17 17 21 25 19
32 35 38 38 43 43 45 38 32 25 24 20 17 15 16 19 22 19 15 12 11 9 7 5 3 1 4 6 8 8 9 16 17 20 18 16 18 17
36 36 37 39 43 42 43 35 28 23 20 17 13 11 15 20 18 15 13 12 10 8 6 4 1 3 6 8 12 15 9 9 14 18 20 21 19 17
37 37 37 40 43 38 42 32 25 20 16 11 9 10 14 14 14 13 12 11 10 8 4 2 2 5 8 11 13 13 16 14 11 11 13 16 18 7
37 35 37 40 40 37 40 29 22 18 13 9 7 10 11 12 12 13 12 11 8 5 3 1 4 6 7 10 12 14 13 11 12 7 5 7 8 10
Wind_Direction
287 284 280 278 276 276 272 263 260 266 268 270 272 274 277 278 278 277 272 262 255 251 250 251 250 247 248 249 252 258 264 267 266 271 279 285 283 268
296 296 294 291 287 283 278 272 268 264 268 268 272 270 268 270 272 276 272 269 259 253 253 253 252 248 246 247 251 254 262 264 265 273 282 281 274 252
309 307 302 297 292 290 287 283 273 267 261 271 269 270 264 268 271 269 268 266 258 251 247 253 251 246 244 245 248 254 259 261 268 277 278 277 258 245
315 308 301 299 298 298 296 291 283 274 266 266 272 270 269 265 271 267 264 264 259 251 243 249 250 244 242 244 248 254 258 262 271 276 274 270 263 246
308 306 302 302 300 298 296 296 293 287 278 269 268 269 267 271 266 265 262 261 261 254 247 241 249 245 243 246 245 253 257 265 270 269 270 268 260 251
315 313 308 307 305 304 301 296 296 292 288 283 276 272 258 256 257 259 258 257 255 254 250 243 253 249 245 243 243 251 256 263 268 265 265 262 255 248
313 312 310 309 305 304 302 299 298 297 292 287 284 278 280 260 248 254 259 258 255 250 252 237 239 237 245 239 241 251 252 262 262 260 261 254 250 242
313 315 316 314 315 311 302 292 293 293 293 291 288 284 280 280 256 270 264 241 251 245 245 241 239 238 237 233 240 244 254 259 257 258 250 249 244 237
315 318 321 317 317 314 307 304 295 284 284 290 292 287 285 281 282 257 257 246 241 247 255 233 240 236 232 232 234 249 256 251 253 253 252 242 241 241
313 315 318 318 321 326 314 306 299 297 293 285 283 293 287 284 280 276 263 248 248 251 234 228 226 229 224 226 232 240 240 242 246 245 237 245 246 249
315 308 315 319 321 323 316 307 303 298 298 295 285 278 285 281 280 268 254 245 230 236 219 219 210 204 207 228 227 235 235 239 241 237 233 250 251 255
312 310 316 320 321 321 317 309 304 302 303 303 296 283 285 277 279 268 259 247 228 219 219 206 196 187 193 222 234 234 235 226 227 228 241 244 244 250
316 315 318 319 320 320 321 315 311 310 304 298 292 287 285 285 289 265 258 246 233 219 216 198 193 191 190 188 205 204 212 220 232 241 242 242 245 249
317 315 318 318 319 322 320 317 314 307 302 298 292 288 284 280 266 252 242 236 230 226 191 185 187 195 205 209 202 211 222 228 231 241 248 248 246 245
317 316 317 316 317 320 329 324 320 316 313 310 301 287 277 269 260 237 216 196 188 175 168 184 186 200 205 211 201 203 213 232 237 244 246 235 244 246
325 324 319 315 317 327 335 334 329 328 320 314 298 285 275 257 232 210 196 185 176 168 175 172 194 200 206 211 226 225 234 234 209 224 250 253 255 256
322 321 322 326 328 330 336 337 333 330 324 313 304 287 263 231 207 196 188 187 181 177 177 177 185 198 211 231 250 254 250 251 245 244 255 262 256 256
327 328 325 325 330 329 332 336 334 330 324 314 301 274 244 221 198 187 190 186 179 169 171 175 186 203 229 246 274 265 257 248 254 259 267 277 277 271
333 330 331 329 330 329 331 335 332 328 320 308 293 266 235 216 199 190 182 177 161 166 172 177 187 222 305 321 290 251 272 277 288 282 278 274 280 282
335 334 333 333 330 330 333 336 332 331 315 310 290 262 231 208 190 180 167 165 162 171 173 179 203 291 310 301 301 294 296 296 292 286 282 275 278 277
335 337 336 335 332 335 335 336 334 332 318 307 286 246 216 197 183 165 156 151 168 165 170 177 213 273 296 309 313 320 320 294 284 286 294 291 290 286
335 336 337 334 334 341 337 337 336 334 319 301 263 227 197 185 169 156 149 155 154 157 155 144 308 321 317 314 318 317 326 326 316 297 275 264 260 254
336 335 332 331 337 343 339 337 338 331 320 305 256 197 175 163 151 145 144 144 144 136 109 2 323 322 322 321 333 339 339 351 358 13 8 309 273 266